TimeEDT,TemperatureF,Dew PointF,Humidity,Sea Level PressureIn,VisibilityMPH,Wind Direction,Wind SpeedMPH,Gust SpeedMPH,PrecipitationIn,Events,Conditions,WindDirDegrees,DateUTC
12:12 AM,51.8,50.0,94,29.70,1.8,Calm,Calm,-,N/A,,Unknown,0,2012-10-20 04:12:00
12:33 AM,50.0,50.0,100,29.70,2.0,Calm,Calm,-,N/A,,Clear,0,2012-10-20 04:33:00
1:15 AM,50.0,46.4,87,29.70,2.0,Calm,Calm,-,N/A,,Clear,0,2012-10-20 05:15:00
1:36 AM,48.2,46.4,93,29.70,1.8,Calm,Calm,-,N/A,,Unknown,0,2012-10-20 05:36:00
1:57 AM,48.2,46.4,93,29.70,2.5,Calm,Calm,-,N/A,,Clear,0,2012-10-20 05:57:00
2:18 AM,48.2,46.4,93,29.70,2.0,Calm,Calm,-,N/A,,Clear,0,2012-10-20 06:18:00
2:42 AM,46.4,44.6,93,29.70,2.5,Calm,Calm,-,N/A,,Clear,0,2012-10-20 06:42:00
3:03 AM,46.4,44.6,93,29.70,0.5,Calm,Calm,-,N/A,,Unknown,0,2012-10-20 07:03:00
3:24 AM,46.4,44.6,93,29.70,4.0,WSW,4.6,-,N/A,,Clear,240,2012-10-20 07:24:00
3:45 AM,46.4,44.6,93,29.71,4.0,West,3.5,-,N/A,,Clear,260,2012-10-20 07:45:00
4:06 AM,46.4,46.4,100,29.72,3.0,Calm,Calm,-,N/A,,Clear,0,2012-10-20 08:06:00
4:27 AM,46.4,44.6,93,29.73,3.0,Calm,Calm,-,N/A,,Clear,0,2012-10-20 08:27:00
4:48 AM,46.4,44.6,93,29.72,2.5,Calm,Calm,-,N/A,,Clear,0,2012-10-20 08:48:00
5:09 AM,46.4,44.6,93,29.73,2.5,Calm,Calm,-,N/A,,Clear,0,2012-10-20 09:09:00
5:30 AM,44.6,42.8,93,29.75,1.5,Calm,Calm,-,N/A,,Unknown,0,2012-10-20 09:30:00
5:54 AM,44.6,42.8,93,29.75,1.8,Calm,Calm,-,N/A,,Unknown,0,2012-10-20 09:54:00
6:15 AM,42.8,42.8,100,29.76,3.0,Calm,Calm,-,N/A,,Clear,0,2012-10-20 10:15:00
6:36 AM,42.8,42.8,100,29.76,2.0,Calm,Calm,-,N/A,,Clear,0,2012-10-20 10:36:00
7:18 AM,42.8,41.0,93,29.77,2.5,Calm,Calm,-,N/A,,Clear,0,2012-10-20 11:18:00
7:39 AM,42.8,41.0,93,29.78,2.0,Calm,Calm,-,N/A,,Scattered Clouds,0,2012-10-20 11:39:00
8:00 AM,42.8,42.8,100,29.79,2.5,Calm,Calm,-,N/A,,Scattered Clouds,0,2012-10-20 12:00:00
8:21 AM,44.6,42.8,93,29.80,3.0,Calm,Calm,-,N/A,,Clear,0,2012-10-20 12:21:00
8:42 AM,44.6,44.6,100,29.80,2.5,Calm,Calm,-,N/A,,Clear,0,2012-10-20 12:42:00
9:03 AM,46.4,46.4,100,29.79,4.0,Calm,Calm,-,N/A,,Clear,0,2012-10-20 13:03:00
10:09 AM,55.4,51.8,88,29.81,10.0,Calm,Calm,-,N/A,,Overcast,0,2012-10-20 14:09:00
10:51 AM,55.4,51.8,88,29.82,10.0,Calm,Calm,-,N/A,,Overcast,0,2012-10-20 14:51:00
11:12 AM,59.0,48.2,67,29.82,10.0,NW,5.8,-,N/A,,Overcast,320,2012-10-20 15:12:00
11:33 AM,60.8,44.6,55,29.82,10.0,West,8.1,-,N/A,,Mostly Cloudy,280,2012-10-20 15:33:00
11:54 AM,62.6,44.6,52,29.82,10.0,NW,5.8,-,N/A,,Clear,310,2012-10-20 15:54:00
12:15 PM,62.6,42.8,48,29.81,10.0,West,9.2,-,N/A,,Clear,270,2012-10-20 16:15:00
12:36 PM,64.4,44.6,49,29.80,10.0,WNW,5.8,-,N/A,,Clear,290,2012-10-20 16:36:00
12:57 PM,64.4,42.8,45,29.80,10.0,WSW,5.8,-,N/A,,Clear,240,2012-10-20 16:57:00
1:18 PM,64.4,41.0,42,29.79,10.0,West,6.9,-,N/A,,Clear,280,2012-10-20 17:18:00
1:39 PM,64.4,41.0,42,29.79,10.0,West,6.9,-,N/A,,Clear,270,2012-10-20 17:39:00
2:00 PM,64.4,41.0,42,29.79,10.0,West,9.2,17.3,N/A,,Scattered Clouds,260,2012-10-20 18:00:00
2:24 PM,68.0,42.8,40,29.78,10.0,West,10.4,17.3,N/A,,Mostly Cloudy,260,2012-10-20 18:24:00
2:45 PM,62.6,42.8,48,29.78,10.0,WSW,10.4,-,N/A,,Mostly Cloudy,250,2012-10-20 18:45:00
3:06 PM,64.4,41.0,42,29.79,10.0,West,8.1,-,N/A,,Overcast,270,2012-10-20 19:06:00
3:27 PM,62.6,41.0,45,29.80,10.0,West,8.1,-,N/A,,Mostly Cloudy,270,2012-10-20 19:27:00
3:48 PM,62.6,41.0,45,29.80,10.0,West,6.9,-,N/A,,Scattered Clouds,270,2012-10-20 19:48:00
4:09 PM,62.6,41.0,45,29.80,10.0,WNW,8.1,-,N/A,,Scattered Clouds,290,2012-10-20 20:09:00
4:30 PM,62.6,41.0,45,29.81,10.0,NW,9.2,-,N/A,,Scattered Clouds,320,2012-10-20 20:30:00
4:51 PM,62.6,41.0,45,29.82,10.0,NW,6.9,-,N/A,,Mostly Cloudy,310,2012-10-20 20:51:00
5:12 PM,60.8,39.2,45,29.82,10.0,WNW,10.4,-,N/A,,Mostly Cloudy,300,2012-10-20 21:12:00
5:33 PM,60.8,39.2,45,29.83,10.0,NW,5.8,-,N/A,,Mostly Cloudy,310,2012-10-20 21:33:00
5:54 PM,59.0,41.0,51,29.84,10.0,NW,5.8,-,N/A,,Overcast,310,2012-10-20 21:54:00
6:15 PM,57.2,39.2,51,29.85,10.0,NW,4.6,-,N/A,,Mostly Cloudy,320,2012-10-20 22:15:00
6:39 PM,53.6,41.0,62,29.85,10.0,Calm,Calm,-,N/A,,Mostly Cloudy,0,2012-10-20 22:39:00
7:00 PM,53.6,41.0,62,29.86,10.0,Calm,Calm,-,N/A,,Mostly Cloudy,0,2012-10-20 23:00:00
7:21 PM,51.8,42.8,71,29.86,10.0,Calm,Calm,-,N/A,,Scattered Clouds,0,2012-10-20 23:21:00
7:42 PM,50.0,44.6,82,29.88,10.0,Calm,Calm,-,N/A,,Mostly Cloudy,0,2012-10-20 23:42:00
8:03 PM,50.0,44.6,82,29.89,10.0,Calm,Calm,-,N/A,,Overcast,0,2012-10-21 00:03:00
8:24 PM,48.2,44.6,87,29.89,10.0,Calm,Calm,-,N/A,,Scattered Clouds,0,2012-10-21 00:24:00
8:45 PM,46.4,44.6,93,29.90,10.0,WNW,4.6,-,N/A,,Clear,290,2012-10-21 00:45:00
9:48 PM,44.6,42.8,93,29.91,10.0,Calm,Calm,-,N/A,,Clear,0,2012-10-21 01:48:00
10:09 PM,44.6,41.0,87,29.92,10.0,Calm,Calm,-,N/A,,Clear,0,2012-10-21 02:09:00
10:33 PM,44.6,41.0,87,29.93,10.0,Calm,Calm,-,N/A,,Clear,0,2012-10-21 02:33:00
10:54 PM,44.6,41.0,87,29.94,10.0,WNW,3.5,-,N/A,,Clear,300,2012-10-21 02:54:00
11:15 PM,44.6,41.0,87,29.94,10.0,Calm,Calm,-,N/A,,Clear,0,2012-10-21 03:15:00
11:36 PM,44.6,41.0,87,29.94,10.0,WNW,3.5,-,N/A,,Clear,300,2012-10-21 03:36:00